1st Responders/1st Detectors/Storm Spotters Weather Summary for Powell County, KY

Forecast Maps


Reg. NEXRAD Animation


National Fire Danger: Day 1 & 2 Map

Current NWS Watch/Warnings

SPC Convective Day 1 Outlook


Day 2 Outlook

(Click images to enlarge|Page will refresh every 5 minutes)
UK Ag. Weather Center Desktop Severe Weather Service[HERE]
Powell County, KY Hazardous Weather Outlook Webcast
(9 AM to 9 PM Mon-Fri)
[Fast]
[Dial-up]


UKAWC 1st Detectors/1st Responders Precision Weather Forecast For POWELL County, Kentucky
(based on the NWS County Digital Forecast)

ISSUED AT 02:00 UTC ON TUESDAY MAY 24 2022
DAY MON TUESDAY
EDT 3HR 11P MIDN 1A 2A 3A 4A 5A 6A 7A 8A 9A 10A 11A NOON 1P 2P 3P 4P 5P 6P 7P
MAX/MIN -- -- -- -- -- -- -- -- -- 52° -- -- -- -- -- -- -- -- -- -- 76°
TEMP 56° 56° 56° 54° 54° 54° 52° 52° 54° 54° 58° 61° 63° 67° 68° 72° 74° 74° 76° 74° 74°
SKY COVER 71% 68% 66% 67% 69% 73% 77% 76% 72% 70% 70% 71% 73% 72% 72% 70% 68% 66% 63% 58% 53%
Clouds
DEW PT 52° 52° 52° 52° 52° 52° 52° 52° 52° 54° 54° 56° 58° 58° 59° 61° 61° 61° 61° 61° 61°
RH 86% 90% 89% 93% 96% 93% 100% 99% 96% 96% 89% 83% 80% 75% 73% 68% 64% 61% 61% 63% 66%
POP 12HR -- -- -- -- -- -- -- -- -- 20% -- -- -- -- -- -- -- -- -- -- --
RAIN/SNOW (liq.equ) -- -- -- 0.00in -- -- -- -- -- 0.00in -- -- -- -- -- 0.00in -- -- -- -- --
SNOWFALL -- -- -- 0in -- -- -- -- -- 0in -- -- -- -- -- 0in -- -- -- -- --
WIND SPEED(MPH) 2 2 2 2 2 2 2 2 2 2 2 2 2 2 2 2 2 5 5 5 5
WIND Gust(MPH) 10 9 7 7 6 6 6 7 7 7 7 7 6 6 6 6 7 7 8 9 9
WIND DIR NE NE NE NE N N N N NE NE NE NE NE NE NE NE NE E E E E
DEW Hvy Dew Hvy Dew Hvy Dew Hvy Dew Hvy Dew Hvy Dew Hvy Dew Hvy Dew Hvy Dew Hvy Dew Hvy Dew Hvy Dew Hvy Dew Lgt Dew Lgt Dew -- -- -- -- -- --
HeatIndex 56 56 56 54 54 54 52 52 54 54 58 61 63 67 68 72 74 74 76 74 74
Rain Showers -- -- -- -- -- -- -- -- -- -- -- -- -- -- -- -- -- -- -- -- --
Thunder Storm -- -- -- -- -- -- -- -- -- -- -- -- -- -- -- -- -- -- -- -- --
Fog -- -- -- -- -- -- Patchy Patchy -- -- -- -- -- -- -- -- -- -- -- -- --
WIND CHILL -- -- -- -- -- -- -- -- -- -- -- -- -- -- -- -- -- -- -- -- --
SPRAY COND
DRY COND
LIVESTOCK HEATSTRESS 56.22 56.15 56.17 54.18 54.11 54.18 52.00 52.04 54.11 54.11 58.05 60.79 62.54 65.87 66.63 69.68 70.99 70.74 72.31 70.91 71.16



DAY WEDNESDAY THURSDAY FRIDAY SATURDAY SUNDAY MONDAY
EDT 6HR 8P 9P 10P 11P MIDN 1A 2A 3A 4A 5A 6A 7A 8A 9A 10A 11A 2P 5P 8P 11P 2A 5A 8A 11A 2P 5P 8P 2A 8A 2P 8P 2A 8A 2P 8P 2A 8A 2P 8P 2A 8A 2P 8P
MAX/MIN -- -- -- -- -- -- -- -- -- -- -- -- 59° -- -- -- -- 85° -- -- -- -- 65° -- -- 79° -- -- 59° 72° -- -- 54° 76° -- -- 56° 83° -- -- 63° 86° --
TEMP 70° 68° 67° 65° 63° 63° 61° 61° 61° 59° 61° 61° 63° 70° 74° 76° 83° 85° 79° 70° 68° 67° 68° 74° 76° 76° 72° 63° 61° 70° 67° 58° 58° 72° 72° 61° 61° 81° 79° 67° 67° 85° 81°
SKY COVER 49% 45% 42% 40% 38% 38% 39% 42% 47% 50% 50% 49% 47% 49% 50% 52% 57% 64% 69% 65% 63% 74% 87% 91% 91% 91% 86% 65% 63% 55% 34% 43% 42% 23% 13% 12% 13% 16% 13% 6% 9% 24% 27%
Clouds
DEW PT 61° 61° 61° 61° 61° 59° 59° 59° 59° 59° 61° 61° 63° 65° 67° 67° 68° 67° 65° 65° 65° 63° 65° 67° 65° 65° 63° 61° 58° 58° 56° 54° 54° 56° 58° 56° 58° 61° 63° 59° 61° 63° 65°
RH 73% 75% 81% 87% 89% 89% 92% 96% 96% 99% 100% 99% 96% 81% 78% 73% 63% 54% 65% 84% 87% 87% 86% 78% 71% 69% 73% 90% 89% 63% 68% 86% 89% 57% 61% 83% 86% 49% 58% 78% 84% 48% 58%
POP 12HR 8% -- -- -- -- -- -- -- -- -- -- -- 22% -- -- -- -- -- 63% -- -- -- 66% -- -- -- 92% -- 74% -- 31% -- 16% -- 10% -- 8% -- 6% -- 3% -- 8%
RAIN/SNOW (liq.equ) 0.00in -- -- -- -- -- 0.00in -- -- -- -- -- 0.01in -- -- -- 0.01in -- 0.11in -- 0.11in -- 0.24in -- 0.27in -- 0.23in -- -- -- -- -- -- -- -- -- -- -- -- -- -- -- --
SNOWFALL 0in -- -- -- -- -- 0in -- -- -- -- -- 0in -- -- -- 0in -- 0in -- 0in -- 0in -- 0in -- 0in -- -- -- -- -- -- -- -- -- -- -- -- -- -- -- --
WIND SPEED(MPH) 5 5 2 2 2 2 2 2 2 5 5 5 5 5 5 5 6 7 7 7 7 6 7 9 9 10 6 6 6 8 6 1 2 6 2 1 2 6 5 2 2 5 5
WIND DIR E E E E E E E E E E SE SE SE SE S S S S SW SE SE S S S S S S S SW SW SW SW SW SW W S S SW S S S SW S
HeatIndex 70 68 67 65 63 63 61 61 61 59 61 61 63 70 74 76 86 87 79 70 68 67 68 74 76 76 72 63 61 70 67 58 58 72 72 61 61 82 79 67 67 87 84
Rain Showers -- -- -- -- -- -- -- -- -- Slight Chance Slight Chance Slight Chance Chance Chance Chance Chance Chance Likely Likely Likely Likely Likely Definite Definite Definite Definite Likely Chance Chance Chance Slight Chance -- -- -- -- -- -- -- -- -- -- -- --
Thunder Storm -- -- -- -- -- -- -- -- -- -- -- -- Slight Chance Slight Chance Slight Chance Slight Chance Chance Chance Likely Chance Chance Chance Slight Chance Chance Chance Likely Slight Chance -- -- Slight Chance -- -- -- -- -- -- -- -- -- -- -- -- --
Fog -- -- -- -- -- -- -- -- -- -- -- -- -- -- -- -- -- -- -- -- -- -- -- -- -- -- -- -- -- -- -- -- -- -- -- -- -- -- -- -- -- -- --
WIND CHILL -- -- -- -- -- -- -- -- -- -- -- -- -- -- -- -- -- -- -- -- -- -- -- -- -- -- -- -- -- -- -- -- -- -- -- -- -- -- -- -- -- -- --
SPRAY COND
DRY COND
LIVESTOCK HEATSTRESS 68.34 66.73 66.14 64.56 62.75 62.75 60.90 60.95 60.95 59.00 61.00 60.99 62.91 68.83 72.16 73.45 78.08 78.37 75.11 69.01 67.34 66.41 67.29 72.16 73.26 73.07 70.04 62.77 60.87 67.72 65.56 58.06 58.05 68.88 69.17 60.79 60.83 74.77 74.33 66.01 66.28 77.51 75.87

Click on individual weather variable above in left-hand column (ie., TEMP, RH, QPF 12HR) to view state forecast maps






NWS 48 Hr. Forecast Maps,

Regional Hourly Observations For POWELL County, Kentucky
Issued at 1100 PM EDT MON MAY 23 2022
NORTHEAST KENTUCKY
  
CITY           SKY/WX    TMP DP  RH WIND       PRES   REMARKS
LEXINGTON      CLOUDY    58  54  86 N5        30.17S                  
COVINGTON      PTCLDY    58  49  72 NE8       30.19R                  
FRANKFORT      PTCLDY    57  53  86 N3        30.16S                  


Current NOWCAST not available:
Nowcasts are not issued routinely during fair weather. Only when
precipitation or other significant weather is occuring in this county will these
forecasts be issued. Currently, there is no short term forecast in effect.


Fire Weather Forecast For POWELL County, KY
Provided by the National Weather Service:

Issued at: Mon May 23 22:05:01 EDT 2022

700 AM EDT Mon May 23 2022

                      Today        Tonight      Tue          

Cloud Cover           Cloudy       Mcldy        Pcldy        
Chance precip (%)     50           0            0            
Precip type           showers      None         None         
Temp (24H TREND)      65 (-9)      51 (-5)      79           
Rh % (24H TREND)      64 (-5)      100 (+4)     53           
20ftwnd-AM(mph)       NE 5-9 G16                NE 2-6       
20ftwnd-PM(mph)       NE 5-9 G17   NE 2-6 G14   NE 3-7       
Precip duration       1                                      
Precip begin                                                 
Precip end                                                   
Precip amount         0.09         0.00         0.00         
LAL                   2            2            1            
Haines Index (MID)    3                         2            
Mixing hgt(ft-AGL)    1300                      2700         
Transport wnd (mph)   NE 16                     E  7         
Vent rate (kt-ft)     18497                     17106        
ADI Early             18           10           11           
ADI Late              24           7            22           
Max LVORI Early       4            5            6            
Max LVORI Late        4            7            3            

Remarks...None.

SPC's Fire Weather Web Tool (Excellent!), SPC's Fire Weather Outlooks, NWS Fire Weather WEB, Fire Danger Class Map,
Keetch-Byram Drought Index, ROMAN Web, Haines Index ,
WFAS's 10-hr Dead Fuel Moist., WFAS's 100-hr Dead Fuel Moist., Probablity of Ignition, Visual blackness Map, Palmer Drought Index, HPC's Rainfall Forecast Maps


Hazardous Weather Outlook For POWELL County, Kentucky
859 PM EDT Mon May 23 2022

 DAY ONE  Tonight.

No hazardous weather is expected at this time.

 DAYS TWO THROUGH SEVEN  Tuesday through Sunday.

Thunderstorms will be possible, at times, late Tuesday through 
Friday, especially during the afternoon and evening hours.

 SPOTTER INFORMATION STATEMENT  

Spotter activation is not anticipated.

Latest POWELL County, Kentucky Watches, Warnings and Advisories.
Additional Drought Info.: UKAWC Drought Page, Kentucky Drought Watch


7-Day Forecast For POWELL County, KY

REST OF TONIGHT
Mostly cloudy. A 20 percent chance of showers and drizzle until early morning. Patchy fog late. Lows in the lower 50s. Light winds.

TUESDAY
Partly sunny. Highs in the mid 70s. Light winds.

TUESDAY NIGHT
Partly cloudy. A 20 percent chance of showers late. Lows around 60. Light winds.

WEDNESDAY
Partly sunny. A chance of showers and thunderstorms in the morning, then showers and thunderstorms likely in the afternoon. Highs in the mid 80s. Light winds. Chance of rain 60 percent.

WEDNESDAY NIGHT
Mostly cloudy. Showers and thunderstorms likely in the evening, then showers likely and a chance of thunderstorms late. Lows in the mid 60s. Light winds. Chance of rain 70 percent.

THURSDAY
Showers with thunderstorms likely. Highs in the upper 70s. Chance of rain 90 percent.

THURSDAY NIGHT
Mostly cloudy with showers likely and a slight chance of thunderstorms. Lows around 60. Chance of rain 70 percent.

FRIDAY
Partly sunny with a chance of showers and a slight chance of thunderstorms. Highs in the lower 70s. Chance of rain 30 percent.

FRIDAY NIGHT
Partly cloudy. Lows in the mid 50s.

SATURDAY
Sunny. Highs in the mid 70s.

SATURDAY NIGHT
Mostly clear. Lows in the upper 50s.

SUNDAY
Sunny. Highs in the mid 80s.

SUNDAY NIGHT
Mostly clear. Lows in the lower 60s.

MEMORIAL DAY
Sunny. Highs in the upper 80s.

Ag Weather Center, Department of Biosystems & Agricultural Engineering, University of Kentucky